Regional Weather Roundup
Issued by NWS Sioux Falls, SD

Home | Current Version | Previous Version | Graphics & Text | Print | Product List | Glossary On
Versions: 1 2 3 4 5 6 7 8 9 10 11 12 13 14 15 16 17 18 19 20 21 22 23 24 25 26 27 28 29 30 31 32 33 34 35 36 37 38 39 40 41 42 43 44 45 46 47 48 49 50
000
ASUS43 KFSD 290410
RWRFSD

WEATHER ROUNDUP FOR SE SOUTH DAKOTA/SW MINNESOTA/NW IOWA
NATIONAL WEATHER SERVICE SIOUX FALLS SD
1000 PM CST FRI NOV 28 2014

NOTE: "FAIR" INDICATES FEW OR NO CLOUDS BELOW 12,000 FEET WITH NO
SIGNIFICANT WEATHER AND OR OBSTRUCTIONS TO VISIBILITY.


SDZ038>040-050-052>070-290500-
SOUTHEAST SOUTH DAKOTA

CITY           SKY/WX    TMP DP  RH WIND       PRES   REMARKS
CHAMBERLAIN    PTCLDY    28  25  87 SE7       29.52F WCI  21
HURON          CLEAR     27  24  89 SE7       29.55F WCI  19
MADISON        FAIR      23  23 100 SE6       29.57F WCI  16
MITCHELL       CLEAR     28  25  88 SE9       29.56F WCI  19
SIOUX FALLS    PTCLDY    24  21  88 E6        29.59F WCI  17
WINNER         FAIR      47  28  47 S6        29.51F
YANKTON        MOCLDY    30  27  86 E3        29.58F
$$

MNZ071-072-080-081-089-090-097-098-290500-
SOUTHWEST MINNESOTA

CITY           SKY/WX    TMP DP  RH WIND       PRES   REMARKS
FAIRMONT       PTCLDY    18  16  93 SE7       29.65F WCI   8
JACKSON        PTCLDY    21  19  93 SE8       29.64F WCI  12
LUVERNE        PTCLDY    27  23  86 E3        29.61F FOG
MARSHALL       MOCLDY    18  12  79 SE7       29.63F WCI   8
MONTEVIDEO     CLOUDY    19  18  93 S12       29.67F WCI   7
PIPESTONE      PTCLDY    23  21  93 SE9       29.58F FOG     WCI  13
REDWOOD FALLS  CLEAR     19  16  88 E7        29.67F WCI  10
TRACY          PTCLDY    16  14  93 SE5       29.64F FOG     WCI   8
WINDOM         PTCLDY    19  18  93 CALM      29.64F
WORTHINGTON    PTCLDY    18  16  93 E5        29.62F WCI  11
$$

IAZ001>003-012>014-020>022-031-032-NEZ013-014-SDZ071-290500-
NORTHWEST IOWA

CITY           SKY/WX    TMP DP  RH WIND       PRES   REMARKS
CHEROKEE       PTCLDY    27  26  99 CALM      29.62F
DENISON        MOCLDY    39  32  75 CALM      29.60F
ESTHERVILLE    CLEAR     15  14  95 SE7       29.65F FOG     WCI   5
LE MARS        MOCLDY    28  28 100 CALM      29.61S
ORANGE CITY    PTCLDY    28  27  93 E8        29.59F WCI  20
SHELDON        MOCLDY    27  25  93 E9        29.60F WCI  17
SIOUX CITY     MOCLDY    33  28  81 E6        29.59F WCI  28
SPENCER        PTCLDY    23  21  92 E9        29.63F WCI  13
STORM LAKE     PTCLDY    27  25  93 SE10      29.62F WCI  17
$$

ABBREVIATIONS USED IN REMARKS
   TC - TEMPERATURE IN CELSIUS
  WCI - WIND CHILL INDEX
   HX - HEAT INDEX
  VSB - VISIBILITY




USA.gov is the U.S. government's official web portal to all federal, state and local government web resources and services.